OPS 5798 DEB, 903

Orbit data source: Space-Track

OPS 5798 DEB, 903 is space debris in LEO originally from a launch on Tue, 06 Oct 1964 UTC launched from the Air Force Western Test Range (AFWTR). Debris objects in space refer to the collection of defunct objects orbiting the Earth. Examples of debris include non-operational satellites, rocket bodies, and fragments generated from explosions, collisions, or faulty payload assembly.

Loading next visibility...
Identifier
903, 1964-063F
Orbit
LEO
Country
Flag of USUS
Related business
Manufacturer
Unknown
Mission
Spacecraft
Bus & Motor
Unknown
Mass
Unknown
Launch date (UTC)
1964-10-06 (62 years ago)
Launch vehicle
Unknown
Launch site
Air Force Western Test Range (AFWTR)
Object type
Payload
Rocket body
Debris
Shape & HBR
Unknown shape, 0.1 m
Radar Cross Section
Small (<0.1 m²)

Expand to show TLE details & history
Last TLE update: 15 hours ago

TLE from 15 hours ago
0 OPS 5798 DEB
1 00903U 64063F   26207.08523913  .00000622  00000-0  58191-3 0  9996
2 00903  90.2225  72.0242 0022768 356.8597 157.2799 13.80796732 79731
Epoch: 2026-07-26T02:02Z
TLE epoch observation values (Epoch: 2026-07-26T02:02:44.660Z)
Latitude
25.78956°
Longitude
-82.34316°
Altitude
979.705 km
Speed
7.356 km/s
True Right ascension
16h 48m 31s
True Declination
25° 39' 33"
Sunlit
Object was in daylight at epoch
Visualization orbit readout
Latitude
Unknown
Longitude
Unknown
Altitude
Unknown
Speed
Unknown
Apparent Right ascension
Unknown
Apparent Declination
Unknown
Sunlit
N/A
Visualization observer readout
Local Sidereal Time
06:21:39
Azimuth
Unknown
Elevation
Unknown
Doppler factor
Unknown
Orbital elements
Apogee altitude
974.77 km
Perigee altitude
941.364 km
Semi-major axis
7,336.204 km
Eccentricity
0.00228
Inclination
90.2225°
RAAN
72.0242°
Arg. of periapsis
356.8597°
True anomaly
157.3804°
Mean anomaly
157.2799°
Eccentric anomaly
157.33018°
Mean motion
3.45411 °/min
Orbital period
104.22 mins
BSTAR
0.00058191
Loading maneuver chart data...
Computing Atmospheric mass density...
Loading historical data...
Loading historical data...
Loading historical data...
Loading historical data...
Loading historical data...
Loading historical data...
Loading historical data...

Documentation

Showing up to 5 results
|